Location: Newark
(16.3678°N, 77.8722°E)
Time: 17:06:52
(UTC+00:00)

S-56A Canister/Altair - Pass Details

Date: 18 December 2019
Orbit: 634 x 2498 km, 38.9° (Epoch: 23 January)

Event Time Altitude Azimuth Distance (km) Brightness Sun altitude
Rises 10:03:05 0° 304° (NW) 6,158 12.4 27.4°
Reaches altitude 10° 10:07:17 10° 303° (WNW) 5,078 12.0 26.6°
Maximum altitude 10:21:31 69° 223° (SW) 2,129 10.6 23.8°
Drops below altitude 10° 10:31:41 10° 141° (SE) 3,729 11.1 21.8°
Sets 10:34:18 0° 139° (SE) 4,487 11.4 21.3°
